Meteo pe oră la Abenra

Astăzi, 29 Iulie, Joi

Timp Temperatura Precipitaţii Vânt Presiune Umiditate
00:00 +15°C° 0.3 mm 5 m/s 749 mmHg 92%
01:00 +14°C° 0.3 mm 5 m/s 749 mmHg 91%
02:00 +14°C° 0.4 mm 6 m/s 749 mmHg 91%
03:00 +14°C° 0.4 mm 6 m/s 748 mmHg 91%
04:00 +14°C° 0.4 mm 7 m/s 748 mmHg 92%
05:00 +13°C° 0.8 mm 8 m/s 748 mmHg 89%
06:00 +13°C° 0.8 mm 9 m/s 748 mmHg 86%
07:00 +15°C° 0.8 mm 9 m/s 748 mmHg 83%
08:00 +15°C° 0.4 mm 9 m/s 748 mmHg 80%
09:00 +16°C° 0.4 mm 10 m/s 748 mmHg 76%
10:00 +16°C° 0.4 mm 10 m/s 748 mmHg 73%
11:00 +16°C° 0.4 mm 10 m/s 748 mmHg 75%
12:00 +16°C° 0.4 mm 10 m/s 748 mmHg 77%
13:00 +15°C° 0.4 mm 9 m/s 749 mmHg 79%
14:00 +16°C° 0.4 mm 9 m/s 749 mmHg 79%
15:00 +16°C° 0.4 mm 10 m/s 749 mmHg 79%
16:00 +16°C° 0.4 mm 10 m/s 749 mmHg 79%
17:00 +16°C° 0.2 mm 9 m/s 749 mmHg 78%
18:00 +15°C° 0.2 mm 9 m/s 749 mmHg 78%
19:00 +15°C° 0.2 mm 9 m/s 749 mmHg 77%
20:00 +15°C° 0 mm 8 m/s 749 mmHg 77%
21:00 +15°C° 0 mm 8 m/s 749 mmHg 76%
22:00 +15°C° 0 mm 8 m/s 749 mmHg 75%
23:00 +15°C° 0 mm 8 m/s 749 mmHg 75%

Mâine, 30 Iulie, Vineri

Timp Temperatura Precipitaţii Vânt Presiune Umiditate
00:00 +16°C° 0 mm 8 m/s 749 mmHg 74%
01:00 +16°C° 0 mm 9 m/s 748 mmHg 73%
02:00 +16°C° 0.1 mm 9 m/s 748 mmHg 77%
03:00 +16°C° 0.1 mm 9 m/s 748 mmHg 80%
04:00 +15°C° 0.1 mm 8 m/s 748 mmHg 84%
05:00 +16°C° 0.1 mm 8 m/s 748 mmHg 83%
06:00 +16°C° 0.1 mm 8 m/s 748 mmHg 83%
07:00 +16°C° 0.1 mm 8 m/s 748 mmHg 83%
08:00 +17°C° 0.2 mm 8 m/s 748 mmHg 79%
09:00 +18°C° 0.2 mm 9 m/s 748 mmHg 76%
10:00 +19°C° 0.2 mm 9 m/s 748 mmHg 72%
11:00 +19°C° 0.1 mm 9 m/s 749 mmHg 70%
12:00 +19°C° 0.1 mm 9 m/s 749 mmHg 68%
13:00 +21°C° 0.1 mm 9 m/s 749 mmHg 66%
14:00 +21°C° 0 mm 8 m/s 749 mmHg 65%
15:00 +20°C° 0 mm 8 m/s 749 mmHg 64%
16:00 +20°C° 0 mm 7 m/s 749 mmHg 64%
17:00 +20°C° 0 mm 6 m/s 749 mmHg 67%
18:00 +19°C° 0 mm 5 m/s 749 mmHg 70%
19:00 +18°C° 0 mm 4 m/s 748 mmHg 73%
20:00 +17°C° 0 mm 3 m/s 748 mmHg 79%
21:00 +16°C° 0 mm 2 m/s 748 mmHg 84%
22:00 +15°C° 0 mm 2 m/s 748 mmHg 89%
23:00 +15°C° 0.4 mm 2 m/s 747 mmHg 91%

Poimâine, 31 Iulie, Sâmbătă

Timp Temperatura Precipitaţii Vânt Presiune Umiditate
00:00 +14°C° 0.4 mm 3 m/s 747 mmHg 93%
01:00 +14°C° 0.4 mm 4 m/s 746 mmHg 94%
02:00 +14°C° 0.1 mm 4 m/s 746 mmHg 94%
03:00 +14°C° 0.1 mm 5 m/s 745 mmHg 94%
04:00 +14°C° 0.1 mm 5 m/s 745 mmHg 93%
05:00 +14°C° 0.1 mm 6 m/s 745 mmHg 92%
06:00 +14°C° 0.1 mm 6 m/s 745 mmHg 91%
07:00 +14°C° 0.1 mm 6 m/s 744 mmHg 89%
08:00 +14°C° 0.6 mm 5 m/s 744 mmHg 90%
09:00 +14°C° 0.6 mm 5 m/s 744 mmHg 90%
10:00 +14°C° 0.6 mm 4 m/s 743 mmHg 90%
11:00 +16°C° 0.4 mm 5 m/s 744 mmHg 85%
12:00 +17°C° 0.4 mm 6 m/s 744 mmHg 80%
13:00 +18°C° 0.4 mm 7 m/s 744 mmHg 75%
14:00 +18°C° 0.4 mm 7 m/s 745 mmHg 77%
15:00 +18°C° 0.4 mm 7 m/s 745 mmHg 79%
16:00 +17°C° 0.4 mm 7 m/s 746 mmHg 81%
17:00 +17°C° 0.1 mm 7 m/s 746 mmHg 80%
18:00 +16°C° 0.1 mm 7 m/s 746 mmHg 78%
19:00 +15°C° 0.1 mm 7 m/s 747 mmHg 77%
20:00 +15°C° 0 mm 6 m/s 747 mmHg 75%
21:00 +15°C° 0 mm 6 m/s 747 mmHg 73%
22:00 +15°C° 0 mm 6 m/s 748 mmHg 71%
23:00 +15°C° 0 mm 6 m/s 748 mmHg 73%

1 August, Duminică

Timp Temperatura Precipitaţii Vânt Presiune Umiditate
00:00 +15°C° 0 mm 6 m/s 748 mmHg 74%
01:00 +15°C° 0 mm 6 m/s 748 mmHg 75%
02:00 +14°C° 0.1 mm 5 m/s 748 mmHg 76%
03:00 +14°C° 0.1 mm 5 m/s 748 mmHg 77%
04:00 +14°C° 0.1 mm 5 m/s 748 mmHg 77%
05:00 +14°C° 0.1 mm 5 m/s 748 mmHg 77%
06:00 +14°C° 0.1 mm 5 m/s 749 mmHg 76%
07:00 +15°C° 0.1 mm 5 m/s 749 mmHg 76%
08:00 +15°C° 0 mm 6 m/s 749 mmHg 70%
09:00 +16°C° 0 mm 7 m/s 749 mmHg 63%
10:00 +17°C° 0 mm 7 m/s 750 mmHg 57%
11:00 +17°C° 0 mm 7 m/s 750 mmHg 56%
12:00 +18°C° 0 mm 7 m/s 750 mmHg 54%
13:00 +18°C° 0 mm 8 m/s 750 mmHg 52%
14:00 +18°C° 0 mm 7 m/s 750 mmHg 53%
15:00 +18°C° 0 mm 7 m/s 750 mmHg 54%
16:00 +17°C° 0 mm 7 m/s 750 mmHg 55%
17:00 +17°C° 0 mm 6 m/s 750 mmHg 59%
18:00 +16°C° 0 mm 6 m/s 751 mmHg 64%
19:00 +15°C° 0 mm 5 m/s 751 mmHg 68%
20:00 +14°C° 0 mm 5 m/s 751 mmHg 73%
21:00 +13°C° 0 mm 4 m/s 751 mmHg 77%
22:00 +12°C° 0 mm 3 m/s 751 mmHg 82%
23:00 +12°C° 0 mm 3 m/s 751 mmHg 83%

2 August, Luni

Timp Temperatura Precipitaţii Vânt Presiune Umiditate
00:00 +11°C° 0 mm 3 m/s 751 mmHg 83%
01:00 +11°C° 0 mm 3 m/s 751 mmHg 84%
02:00 +11°C° 0.1 mm 4 m/s 751 mmHg 85%
03:00 +11°C° 0.1 mm 4 m/s 751 mmHg 86%
04:00 +11°C° 0.1 mm 4 m/s 751 mmHg 86%
05:00 +13°C° 0.1 mm 4 m/s 751 mmHg 83%
06:00 +14°C° 0.1 mm 4 m/s 751 mmHg 79%
07:00 +15°C° 0.1 mm 4 m/s 751 mmHg 76%
08:00 +15°C° 0.1 mm 5 m/s 751 mmHg 72%
09:00 +16°C° 0.1 mm 6 m/s 751 mmHg 68%
10:00 +17°C° 0.1 mm 6 m/s 751 mmHg 63%
11:00 +17°C° 0.1 mm 7 m/s 751 mmHg 62%
12:00 +18°C° 0.1 mm 7 m/s 751 mmHg 60%
13:00 +18°C° 0.1 mm 8 m/s 751 mmHg 58%
14:00 +18°C° 0.1 mm 7 m/s 752 mmHg 61%
15:00 +18°C° 0.1 mm 7 m/s 752 mmHg 64%
16:00 +17°C° 0.1 mm 7 m/s 752 mmHg 66%
17:00 +17°C° 0 mm 6 m/s 752 mmHg 69%
18:00 +16°C° 0 mm 6 m/s 752 mmHg 71%
19:00 +16°C° 0 mm 5 m/s 752 mmHg 73%
20:00 +15°C° 0 mm 5 m/s 752 mmHg 78%
21:00 +14°C° 0 mm 4 m/s 753 mmHg 83%
22:00 +12°C° 0 mm 3 m/s 753 mmHg 89%
23:00 +12°C° 0.1 mm 3 m/s 753 mmHg 89%

3 August, Marţi

Timp Temperatura Precipitaţii Vânt Presiune Umiditate
00:00 +12°C° 0.1 mm 3 m/s 753 mmHg 89%
01:00 +12°C° 0.1 mm 3 m/s 753 mmHg 89%
02:00 +12°C° 0.1 mm 3 m/s 753 mmHg 89%
03:00 +13°C° 0.1 mm 2 m/s 753 mmHg 88%
04:00 +13°C° 0.1 mm 2 m/s 753 mmHg 87%
05:00 +14°C° 0.1 mm 2 m/s 753 mmHg 85%
06:00 +14°C° 0.1 mm 2 m/s 753 mmHg 82%
07:00 +15°C° 0.1 mm 2 m/s 753 mmHg 79%
08:00 +16°C° 0.1 mm 2 m/s 754 mmHg 75%
09:00 +17°C° 0.1 mm 2 m/s 754 mmHg 72%
10:00 +17°C° 0.1 mm 3 m/s 754 mmHg 68%
11:00 +18°C° 0.1 mm 3 m/s 754 mmHg 63%
12:00 +19°C° 0.1 mm 3 m/s 754 mmHg 59%
13:00 +20°C° 0.1 mm 3 m/s 753 mmHg 54%
14:00 +19°C° 0 mm 3 m/s 753 mmHg 54%
15:00 +19°C° 0 mm 3 m/s 754 mmHg 54%
16:00 +19°C° 0 mm 3 m/s 754 mmHg 54%
17:00 +18°C° 0 mm 3 m/s 754 mmHg 58%
18:00 +18°C° 0 mm 3 m/s 754 mmHg 62%
19:00 +17°C° 0 mm 3 m/s 754 mmHg 65%
20:00 +16°C° 0 mm 3 m/s 754 mmHg 71%
21:00 +13°C° 0 mm 3 m/s 754 mmHg 76%
22:00 +13°C° 0 mm 2 m/s 754 mmHg 81%
23:00 +12°C° 0 mm 2 m/s 754 mmHg 83%
Arată mai mult

Formular de consimțământ

Meteoprog și furnizorii noștri de servicii pot stoca și accesa date personale, precum cookies, identificatori de dispozitiv sau alte tehnologii similare pe dispozitivul dumneavoastră și procesa astfel de date pentru a personaliza conținutul și reclamele, dar și pentru a oferi caracteristici de social media și pentru a analiza traficul.

  • Stocarea și/sau accesarea informațiilor pe dispozitivul dumneavoastră

    Cookies, identificatori de dispozitiv sau alte informații pot fi stocate sau accesate pe dispozitiv în scopurile indicate mai sus.

  • Reclame și conținut personalizat, evaluarea reclamelor și a conținutului, informații despre audiențe și dezvoltarea produselor

    Reclamele și conținutul pot fi personalizate pe baza unui profil. Pot fi adăugate date suplimentare pentru a personaliza mai bine reclamele și conținutul. Performanța reclamelor și conținutului poate fi măsurată. Pot fi obținute informații despre utilizatorii care au văzut reclamele și conținutul. Aceste date pot fi utilizate pentru a dezvolta sau îmbunătăți experiența utilizatorilor, sistemele și software-ul.

Dând clic pe ‘Sunt de acord’, permiteți utilizarea cookie-urilor menționate, a identificatorilor de dispozitiv, balizelor web sau altor tehnologii similare. Setările pot fi modificate din browser-ul dispozitivului dumneavoastră.

În anumite scopuri, interesele legitime pot prima asupra consimțământului. Puteți citi mai multe informații în acest sens în Politica privind Confidențialitatea Datelor și Cookie.